Regional Weather Roundup
Issued by NWS

Home | Current Version | Previous Version | Text Only | Print | Product List | Glossary Off
Versions: 1 2 3 4 5 6 7 8 9 10 11 12 13 14 15 16 17 18 19 20 21 22 23 24 25 26 27 28 29 30 31 32 33 34 35 36 37 38 39 40 41 42 43 44 45 46 47 48 49 50

000
ASUS43 KTOP 030708
RWRKS

WEATHER ROUNDUP FOR KANSAS
NATIONAL WEATHER SERVICE GOODLAND KS
100 AM CST FRI DEC 03 2021

NOTE:  "FAIR" INDICATES FEW OR NO CLOUDS BELOW 12,000 FEET WITH NO
SIGNIFICANT WEATHER AND/OR OBSTRUCTIONS TO VISIBILITY.

KSZ001>006-013>018-027>032-041>047-030800-
NORTHWEST KANSAS

CITY           SKY/WX    TMP DP  RH WIND       PRES   REMARKS
GOODLAND       FAIR      45  22  40 W13       29.95F
HAYS           FAIR      49  26  41 W7        29.91F
HILL CITY      FAIR      50  29  44 W8        29.91S
RUSSELL        FAIR      45  28  51 SW10      29.88F
$$

KSZ061>065-074>080-084>089-030800-
SOUTHWEST KANSAS

CITY           SKY/WX    TMP DP  RH WIND       PRES   REMARKS
DODGE CITY     FAIR      45  25  45 SW8       29.93F
ELKHART        FAIR      50  16  25 W13       29.97F
GARDEN CITY    FAIR      45  22  40 W6        29.93F
GREAT BEND     FAIR      44  31  60 SW6       29.92F
LIBERAL        FAIR      34  19  54 W9        29.95F
PRATT          FAIR      42  31  65 SW9       29.92F
$$

KSZ066>073-081>083-090>101-030800-
SOUTHEAST KANSAS

CITY           SKY/WX    TMP DP  RH WIND       PRES   REMARKS
CHANUTE        FAIR      53  42  66 S7        29.95F
COFFEYVILLE    FAIR      52  42  69 S7        29.96S
HUTCHINSON     FAIR      47  35  63 CALM      29.92F
NEWTON         FAIR      49  37  63 S8        29.93F
PARSONS        FAIR      52  42  69 S5        29.97F
WICHITA INTL   FAIR      48  38  68 S6        29.92F
WICHITA JABRA  FAIR      55  38  52 S8        29.93F
WICHITA MCCONL FAIR      49  38  65 SW12      29.92F
WINFIELD       FAIR      46  38  73 S3        29.95F
$$

KSZ007>012-019>026-033>040-048>060-102>105-030800-
NORTHEAST KANSAS

CITY           SKY/WX    TMP DP  RH WIND       PRES   REMARKS
CONCORDIA      FAIR      56  33  42 SW7       29.88F
EMPORIA        FAIR      50  38  63 S9        29.91F
LAWRENCE       FAIR      40  35  83 E3        29.91F
MANHATTAN      FAIR      40  34  79 CALM      29.90F
MARYSVILLE     FAIR      50  36  57 SW9       29.87F
OLATHE IND     FAIR      46  37  71 S8        29.92F
OLATHE EXE     FAIR      51  40  65 S6        29.91F
SALINA         FAIR      42  33  70 SE3       29.90F
TOPEKA BILLARD FAIR      44  38  79 CALM      29.90F
TOPEKA FORBES  FAIR      44  35  70 S6        29.90F
$$



USA.gov is the U.S. government's official web portal to all federal, state and local government web resources and services.